Content
SEND FEEDBACK

Daily
Averages
Monthly
Summary
United States of America

LANCASTER, CALIFORNIA


Home > North America > United States > California
Elevation: 2339 feet     Latitude: 34 44N     Longitude: 118 13W

WEATHER
 
SELECT A DAY
Number of Records: 15,028;   Date Range: 9/1/12 - 7/23/14
 
SHARE

PRINT THIS DATA

[ ← Previous Day ]
WEATHER ALMANAC - FEBRUARY 5, 2013
[ Next Day → ]
[ °C ]   °F
Weather ElementAverageHighLow
Temperature51.7 °F72 °F (12:56 pm)32 °F (3:56 am)
Dewpoint29.6 °F42.1 °F (10:56 pm)21 °F (3:56 am)
Humidity47.6 %80 % (10:56 pm)16 % (12:56 pm)
Barometer30.01 in30.08 in (7:56 am)29.93 in (2:56 pm)
Wind Speed11.2 mph28.8 mph (10:56 pm)
Wind Gust35.7 mph (10:56 pm)
Weather ElementAverage
Visibility9 mi
Wind DirectionSSE (158.3 °)

Weather ElementTotal
Precipitation---
Heating Degree Days13 (Base 65)
Growing Degree Days2 (Base 50)
Averaged from 23 records on February 5, 2013
WEATHER CONDITIONS BREAKOUT
WIND DIRECTION BREAKOUT
WEATHER BY HOUR - FEBRUARY 5, 2013
[ °C ]   °F
Local TimeTemperatureDewpointHumidityBarometerVisibilityWind DirectionWind SpeedGust SpeedPrecipitationEventsConditions
1:56 AM39.0 °F24.1 °F55 %30.05 in10.0 miCalmClear
2:56 AM34.0 °F21.9 °F61 %30.04 in10.0 miCalmClear
3:56 AM32.0 °F21.0 °F64 %30.04 in10.0 miNW (310°)4.6 mphClear
4:56 AM32.0 °F21.0 °F64 %30.04 in10.0 miWest (280°)3.5 mphClear
5:56 AM36.0 °F23.0 °F59 %30.04 in10.0 miCalmClear
6:56 AM32.0 °F21.9 °F66 %30.07 in10.0 miCalmClear
7:56 AM37.9 °F25.0 °F60 %30.08 in10.0 miCalmClear
8:56 AM46.9 °F26.1 °F44 %30.07 in10.0 miCalmClear
9:56 AM55.0 °F26.1 °F33 %30.06 in10.0 miCalmClear
10:56 AM63.0 °F26.1 °F25 %30.03 in10.0 miCalmClear
11:56 AM70.0 °F24.1 °F18 %29.99 in10.0 miCalmClear
12:56 PM72.0 °F23.0 °F16 %29.95 in10.0 miSW (220°)13.8 mph20.7 mphClear
1:56 PM69.1 °F30.0 °F23 %29.94 in10.0 miSW (220°)20.7 mph27.6 mphClear
2:56 PM70.0 °F30.0 °F23 %29.93 in10.0 miSW (230°)17.3 mph26.5 mphClear
3:56 PM66.0 °F33.1 °F29 %29.94 in10.0 miSW (230°)16.1 mph23.0 mphClear
4:56 PM62.1 °F35.1 °F37 %29.97 in10.0 miWSW (250°)17.3 mphClear
5:56 PM57.9 °F33.1 °F39 %29.97 in10.0 miWest (260°)17.3 mphClear
6:56 PM57.0 °F33.1 °F40 %29.98 in10.0 miWest (260°)20.7 mph26.5 mphClear
7:56 PM55.9 °F39.9 °F55 %29.99 in6.0 miWest (270°)23.0 mphHaze
8:56 PM55.0 °F39.9 °F57 %29.98 in6.0 miWest (280°)23.0 mph31.1 mphHaze
9:56 PM52.0 °F41.0 °F66 %29.99 in6.0 miWest (280°)25.3 mph34.5 mphHaze
10:56 PM48.0 °F42.1 °F80 %29.99 in4.0 miWest (280°)28.8 mph35.7 mphHaze
11:56 PM46.9 °F41.0 °F80 %29.99 in6.0 miWest (270°)25.3 mph32.2 mphHaze
Hourly data recorded from KWJF, located miles away from Lancaster, California







STORIES FROM OUR PARTNERS